PSLV R/B, 43287

Orbit data source: Space-Track

PSLV R/B, 43287 is space debris in HEO originally from a launch on Wed, 11 Apr 2018 UTC launched from the Sirharikota (SRI). Debris objects in space refer to the collection of defunct objects orbiting the Earth. Examples of debris include non-operational satellites, rocket bodies, and fragments generated from explosions, collisions, or faulty payload assembly.

Loading next visibility...
Identifier
43287, 2018-035B
Orbit
HEO
Country
Flag of ININ / IND
Related business
Manufacturer
VSSC/LPSC
Mission
Spacecraft
Bus & Motor
PS-4, Unknown motor
Mass
920 kg wet, 920 kg dry
Launch date (UTC)
2018-04-11 (8 years ago)
Launch vehicle
Unknown
Launch site
Sirharikota (SRI)
Object type
Payload
Rocket body
Debris
Shape & HBR
Cyl + Cyl + 2 Nozzle, 1.6 m
Radar Cross Section
3.727 m², Large (>1 m²)

Expand to show TLE details & history
Last TLE update: 19 hours ago

TLE from 19 hours ago
0 PSLV R/B
1 43287U 18035B   25312.27616058  .00014621  00000-0  12225-2 0  9997
2 43287  19.0562 292.9038 5648913 165.9185 220.7979  4.62071370115949
Epoch: 2025-11-08T06:37Z
TLE epoch observation values (Epoch: 2025-11-08T06:37:40.274Z)
Latitude
-0°
Longitude
145.76136°
Altitude
16,543.904 km
Speed
2.933 km/s
True Right ascension
19h 31m 32s
True Declination
0° 00' 00"
Sunlit
Object was in daylight at epoch
Visualization orbit readout
Latitude
Unknown
Longitude
Unknown
Altitude
Unknown
Speed
Unknown
Apparent Right ascension
Unknown
Apparent Declination
Unknown
Sunlit
N/A
Visualization observer readout
Local Sidereal Time
22:20:15
Azimuth
Unknown
Elevation
Unknown
Doppler factor
Unknown
Orbital elements
Apogee altitude
17,456.229 km
Perigee altitude
248.867 km
Semi-major axis
15,230.685 km
Eccentricity
0.56489
Inclination
19.0562°
RAAN
292.9038°
Arg. of periapsis
165.9185°
True anomaly
194.10322°
Mean anomaly
220.7979°
Eccentric anomaly
206.40457°
Mean motion
1.15469 °/min
Orbital period
311.77 mins
BSTAR
0.0012225
Loading maneuver chart data...
Computing Atmospheric mass density...
Loading historical data...
Loading historical data...
Loading historical data...
Loading historical data...
Loading historical data...
Loading historical data...
Loading historical data...
Other satellites on launch #35 in the year 2018 (2018-04-11 UTC)

Documentation

Showing up to 5 results
|